SL-14 R/B, 27061

Orbit data source: Space-Track

SL-14 R/B, 27061 is space debris in LEO originally from a launch on Fri, 28 Dec 2001 UTC launched from the Plesetsk Missile And Space Complex (PKMTR). Debris objects in space refer to the collection of defunct objects orbiting the Earth. Examples of debris include non-operational satellites, rocket bodies, and fragments generated from explosions, collisions, or faulty payload assembly.

Loading next visibility...
Identifier
27061, 2001-058G
Orbit
LEO
Country
Flag of CISCIS
Related business
Manufacturer
Yuzhnoe
Mission
Spacecraft
Bus & Motor
S5M, Unknown motor
Mass
1,600 kg wet, 1,600 kg dry
Launch date (UTC)
2001-12-28 (24 years ago)
Launch vehicle
Unknown
Launch site
Plesetsk Missile And Space Complex (PKMTR)
Object type
Payload
Rocket body
Debris
Shape & HBR
Cyl, 1.4 m
Radar Cross Section
7.351 m², Large (>1 m²)

Expand to show TLE details & history
Last TLE update: 4 hours ago

TLE from 4 hours ago
0 SL-14 R/B
1 27061U 01058G   25295.19612403  .00000009  00000-0 -32502-5 0  9996
2 27061  82.5408  84.5451 0042516 284.9953 249.1706 12.53953247 90199
Epoch: 2025-10-22T04:42Z
TLE epoch observation values (Epoch: 2025-10-22T04:42:25.116Z)
Latitude
6.16252°
Longitude
162.26122°
Altitude
1,462.091 km
Speed
7.127 km/s
True Right ascension
17h 34m 57s
True Declination
6° 07' 45"
Sunlit
Object was in daylight at epoch
Visualization orbit readout
Latitude
Unknown
Longitude
Unknown
Altitude
Unknown
Speed
Unknown
Apparent Right ascension
Unknown
Apparent Declination
Unknown
Sunlit
N/A
Visualization observer readout
Local Sidereal Time
03:32:49
Azimuth
Unknown
Elevation
Unknown
Doppler factor
Unknown
Orbital elements
Apogee altitude
1,478.599 km
Perigee altitude
1,412.075 km
Semi-major axis
7,823.474 km
Eccentricity
0.00425
Inclination
82.5408°
RAAN
84.5451°
Arg. of periapsis
284.9953°
True anomaly
248.71611°
Mean anomaly
249.1706°
Eccentric anomaly
248.94327°
Mean motion
3.13649 °/min
Orbital period
114.78 mins
BSTAR
-0.0000032502
Loading maneuver chart data...
Computing Atmospheric mass density...
Loading historical data...
Loading historical data...
Loading historical data...
Loading historical data...
Loading historical data...
Loading historical data...
Loading historical data...

Documentation

Showing up to 5 results
|